TimeCDT,TemperatureF,Dew PointF,Humidity,Sea Level PressureIn,VisibilityMPH,Wind Direction,Wind SpeedMPH,Gust SpeedMPH,PrecipitationIn,Events,Conditions,WindDirDegrees,DateUTC
12:53 AM,70.0,64.0,81,29.96,10.0,West,3.5,-,N/A,,Clear,280,2013-06-14 05:53:00
1:53 AM,70.0,64.0,81,29.96,10.0,West,4.6,-,N/A,,Clear,280,2013-06-14 06:53:00
2:53 AM,69.1,64.0,84,29.97,10.0,Calm,Calm,-,N/A,,Clear,0,2013-06-14 07:53:00
3:53 AM,66.0,64.0,93,29.99,10.0,North,5.8,-,N/A,,Clear,360,2013-06-14 08:53:00
4:53 AM,66.9,64.0,90,30.00,10.0,NE,3.5,-,N/A,,Clear,50,2013-06-14 09:53:00
5:53 AM,66.0,63.0,90,30.01,10.0,Calm,Calm,-,N/A,,Clear,0,2013-06-14 10:53:00
6:53 AM,69.1,64.9,87,30.02,10.0,Calm,Calm,-,N/A,,Clear,0,2013-06-14 11:53:00
7:53 AM,75.0,57.0,53,30.04,10.0,ESE,5.8,-,N/A,,Clear,110,2013-06-14 12:53:00
8:53 AM,78.1,55.9,46,30.06,10.0,SE,4.6,-,N/A,,Clear,130,2013-06-14 13:53:00
9:53 AM,80.1,55.0,42,30.06,10.0,Variable,4.6,-,N/A,,Clear,0,2013-06-14 14:53:00
10:53 AM,82.0,54.0,38,30.04,10.0,Variable,4.6,-,N/A,,Clear,0,2013-06-14 15:53:00
11:53 AM,84.0,55.9,38,30.05,10.0,ESE,6.9,-,N/A,,Clear,110,2013-06-14 16:53:00
12:53 PM,86.0,54.0,33,30.04,10.0,NE,12.7,17.3,N/A,,Clear,50,2013-06-14 17:53:00
1:53 PM,86.0,55.0,35,30.03,10.0,NE,10.4,17.3,N/A,,Clear,50,2013-06-14 18:53:00
2:53 PM,87.1,54.0,32,30.01,10.0,NE,13.8,21.9,N/A,,Clear,40,2013-06-14 19:53:00
3:53 PM,87.1,53.1,31,30.00,10.0,NNE,13.8,20.7,N/A,,Clear,30,2013-06-14 20:53:00
4:53 PM,87.1,55.0,33,29.99,10.0,ENE,10.4,20.7,N/A,,Clear,70,2013-06-14 21:53:00
5:53 PM,84.9,55.0,36,29.98,10.0,ENE,10.4,17.3,N/A,,Clear,70,2013-06-14 22:53:00
6:53 PM,84.0,55.9,38,29.98,10.0,ENE,10.4,17.3,N/A,,Clear,70,2013-06-14 23:53:00
7:53 PM,81.0,55.9,42,29.97,10.0,East,10.4,-,N/A,,Clear,80,2013-06-15 00:53:00
8:53 PM,78.1,59.0,52,29.98,10.0,Calm,Calm,-,N/A,,Clear,0,2013-06-15 01:53:00
9:53 PM,75.9,61.0,60,30.00,10.0,East,4.6,-,N/A,,Clear,90,2013-06-15 02:53:00
10:53 PM,73.9,61.0,64,30.02,10.0,Calm,Calm,-,N/A,,Clear,0,2013-06-15 03:53:00
11:53 PM,73.0,62.1,68,30.02,10.0,Calm,Calm,-,N/A,,Clear,0,2013-06-15 04:53:00